173P/Mueller 5 (1994)

Japanese version
Home page
Total 6,336 html files since Dec. 4, 1995
Updated on November 18, 2007

---------------------------------------------------------------------

* Profile

Designation 173P/1993 W1
Discovery Date November 20, 1993
Magnitude 17.5-18 mag
Discoverer Jean Mueller (Palomar Sky Survey)

* Orbital Elements

                    Epoch = 1994 Sept. 5.0 TT
     T = 1994 Sept.12.1603 TT         Peri. =  30.0222
     e = 0.260528                     Node  = 100.6625  2000.0
     q = 4.249738 AU                  Incl. =  16.4655
       a =  5.746990 AU    n = 0.0715391    P =  13.78 years

* Magnitudes Graph

        m1 = -14 + 5 log d + 45 log r(t + 600)

---------------------------------------------------------------------

The orbital elements are calculated by Dr. B. G. Marsden and printed on IAUC 8613.
The magnitudes graphs are made with Comet for Windows.

---------------------------------------------------------------------

Copyright(C) 1995-2008 Seiichi Yoshida (comet@aerith.net). All rights reserved.